TimeCST,TemperatureF,Dew PointF,Humidity,Sea Level PressureIn,VisibilityMPH,Wind Direction,Wind SpeedMPH,Gust SpeedMPH,PrecipitationIn,Events,Conditions,WindDirDegrees,DateUTC
12:15 AM,40.1,34.9,82,30.14,10.0,North,24.2,33.4,N/A,,Overcast,360,2013-03-05 06:15:00
12:55 AM,39.2,35.6,87,30.17,10.0,North,12.7,19.6,N/A,,Light Drizzle,350,2013-03-05 06:55:00
1:15 AM,39.2,35.1,85,30.16,10.0,North,16.1,-,N/A,,Overcast,350,2013-03-05 07:15:00
1:35 AM,39.9,33.3,77,30.16,10.0,North,17.3,21.9,N/A,,Overcast,350,2013-03-05 07:35:00
1:55 AM,40.5,31.1,69,30.16,10.0,North,20.7,25.3,N/A,,Overcast,350,2013-03-05 07:55:00
2:15 AM,41.0,27.7,59,30.18,10.0,NNW,19.6,27.6,N/A,,Overcast,340,2013-03-05 08:15:00
2:35 AM,41.0,26.6,57,30.20,10.0,NNW,20.7,28.8,N/A,,Overcast,340,2013-03-05 08:35:00
2:55 AM,40.6,23.0,49,30.20,10.0,NNW,23.0,28.8,N/A,,Overcast,340,2013-03-05 08:55:00
3:35 AM,38.7,19.9,47,30.21,10.0,NNW,21.9,29.9,N/A,,Clear,340,2013-03-05 09:35:00
3:55 AM,37.8,21.6,52,30.22,10.0,NNW,16.1,29.9,N/A,,Clear,340,2013-03-05 09:55:00
4:15 AM,36.7,22.5,56,30.23,10.0,NNW,24.2,29.9,N/A,,Clear,330,2013-03-05 10:15:00
4:35 AM,35.2,20.8,56,30.24,10.0,NNW,21.9,31.1,N/A,,Clear,340,2013-03-05 10:35:00
4:55 AM,34.0,20.8,59,30.25,10.0,NNW,17.3,31.1,N/A,,Clear,330,2013-03-05 10:55:00
5:15 AM,33.1,21.2,62,30.26,10.0,NNW,16.1,25.3,N/A,,Clear,340,2013-03-05 11:15:00
5:35 AM,32.7,20.5,61,30.28,10.0,NNW,16.1,-,N/A,,Clear,340,2013-03-05 11:35:00
6:35 AM,32.0,19.9,61,30.30,10.0,NNW,16.1,-,N/A,,Clear,340,2013-03-05 12:35:00
6:55 AM,32.0,21.2,64,30.31,10.0,NNW,11.5,-,N/A,,Clear,330,2013-03-05 12:55:00
7:15 AM,31.6,21.0,65,30.33,10.0,NW,11.5,-,N/A,,Clear,320,2013-03-05 13:15:00
7:35 AM,32.0,20.1,62,30.34,10.0,NNW,12.7,19.6,N/A,,Clear,330,2013-03-05 13:35:00
7:55 AM,32.0,21.2,64,30.35,10.0,NW,15.0,18.4,N/A,,Clear,320,2013-03-05 13:55:00
8:15 AM,32.5,21.2,63,30.36,10.0,NNW,16.1,23.0,N/A,,Clear,330,2013-03-05 14:15:00
8:35 AM,33.4,20.7,59,30.35,10.0,NNW,16.1,25.3,N/A,,Clear,330,2013-03-05 14:35:00
8:55 AM,34.5,20.8,57,30.36,10.0,NNW,16.1,21.9,N/A,,Clear,330,2013-03-05 14:55:00
9:15 AM,35.6,20.5,54,30.37,10.0,NNW,15.0,21.9,N/A,,Clear,330,2013-03-05 15:15:00
9:35 AM,35.8,20.8,55,30.38,10.0,NW,17.3,26.5,N/A,,Clear,320,2013-03-05 15:35:00
9:55 AM,36.9,21.7,54,30.37,10.0,NW,19.6,27.6,N/A,,Clear,320,2013-03-05 15:55:00
10:15 AM,37.2,21.7,54,30.38,10.0,NNW,19.6,27.6,N/A,,Clear,330,2013-03-05 16:15:00
10:35 AM,37.9,19.8,48,30.38,10.0,NNW,25.3,32.2,N/A,,Clear,340,2013-03-05 16:35:00
10:55 AM,39.0,20.7,48,30.38,10.0,NNW,21.9,28.8,N/A,,Clear,330,2013-03-05 16:55:00
11:15 AM,39.2,21.0,48,30.38,10.0,NNW,23.0,29.9,N/A,,Clear,340,2013-03-05 17:15:00
11:35 AM,40.1,22.5,49,30.39,10.0,NNW,21.9,31.1,N/A,,Clear,340,2013-03-05 17:35:00
11:55 AM,41.2,23.2,49,30.39,10.0,NNW,18.4,26.5,N/A,,Clear,340,2013-03-05 17:55:00
12:15 PM,41.4,23.4,49,30.40,10.0,NW,17.3,24.2,N/A,,Clear,320,2013-03-05 18:15:00
12:35 PM,42.3,23.4,47,30.40,10.0,NW,15.0,21.9,N/A,,Clear,320,2013-03-05 18:35:00
1:15 PM,43.9,24.4,46,30.38,10.0,NW,15.0,24.2,N/A,,Clear,320,2013-03-05 19:15:00
1:35 PM,44.6,25.9,48,30.36,10.0,NW,19.6,25.3,N/A,,Clear,310,2013-03-05 19:35:00
1:55 PM,45.7,26.4,47,30.35,10.0,NW,18.4,23.0,N/A,,Clear,320,2013-03-05 19:55:00
2:15 PM,46.0,24.8,43,30.34,10.0,NNW,12.7,24.2,N/A,,Clear,340,2013-03-05 20:15:00
2:35 PM,46.6,25.0,43,30.33,10.0,NW,16.1,24.2,N/A,,Clear,320,2013-03-05 20:35:00
3:15 PM,48.0,24.8,40,30.33,10.0,NNW,19.6,26.5,N/A,,Clear,340,2013-03-05 21:15:00
3:35 PM,48.4,25.3,41,30.33,10.0,NNW,15.0,24.2,N/A,,Clear,330,2013-03-05 21:35:00
4:15 PM,48.4,25.5,41,30.34,10.0,NNW,11.5,-,N/A,,Clear,330,2013-03-05 22:15:00
4:35 PM,48.4,24.8,40,30.34,10.0,NNW,15.0,21.9,N/A,,Clear,330,2013-03-05 22:35:00
4:55 PM,47.7,24.3,40,30.33,10.0,NNW,15.0,-,N/A,,Clear,340,2013-03-05 22:55:00
5:15 PM,47.3,24.6,41,30.34,10.0,NNW,12.7,19.6,N/A,,Clear,340,2013-03-05 23:15:00
5:35 PM,47.1,25.2,42,30.33,10.0,NNW,11.5,-,N/A,,Clear,340,2013-03-05 23:35:00
5:55 PM,46.4,24.4,42,30.34,10.0,North,12.7,-,N/A,,Clear,350,2013-03-05 23:55:00
6:15 PM,45.5,25.0,45,30.34,10.0,NNW,10.4,-,N/A,,Clear,340,2013-03-06 00:15:00
6:35 PM,43.9,25.5,48,30.35,10.0,North,8.1,-,N/A,,Clear,350,2013-03-06 00:35:00
6:55 PM,41.2,27.1,57,30.35,10.0,North,6.9,-,N/A,,Clear,360,2013-03-06 00:55:00
7:15 PM,38.3,27.3,65,30.35,10.0,North,5.8,-,N/A,,Clear,10,2013-03-06 01:15:00
7:35 PM,36.5,27.3,69,30.36,10.0,North,4.6,-,N/A,,Clear,10,2013-03-06 01:35:00
7:55 PM,34.5,27.9,77,30.36,10.0,North,5.8,-,N/A,,Clear,10,2013-03-06 01:55:00
8:15 PM,34.3,28.2,78,30.37,10.0,North,4.6,-,N/A,,Clear,10,2013-03-06 02:15:00
8:35 PM,34.2,28.4,79,30.37,10.0,North,3.5,-,N/A,,Clear,360,2013-03-06 02:35:00
8:55 PM,32.7,29.3,87,30.37,10.0,North,4.6,-,N/A,,Clear,360,2013-03-06 02:55:00
9:15 PM,32.4,28.6,86,30.36,10.0,North,3.5,-,N/A,,Clear,10,2013-03-06 03:15:00
9:35 PM,30.7,28.2,90,30.37,10.0,Calm,Calm,-,N/A,,Clear,0,2013-03-06 03:35:00
10:15 PM,30.7,28.2,90,30.39,10.0,Calm,Calm,-,N/A,,Clear,0,2013-03-06 04:15:00
10:35 PM,31.5,26.8,83,30.39,10.0,Calm,Calm,-,N/A,,Clear,0,2013-03-06 04:35:00
10:55 PM,29.7,27.1,90,30.40,10.0,Calm,Calm,-,N/A,,Clear,0,2013-03-06 04:55:00
11:15 PM,30.4,27.5,89,30.40,10.0,Calm,Calm,-,N/A,,Clear,0,2013-03-06 05:15:00
11:35 PM,29.3,28.0,95,30.39,10.0,Calm,Calm,-,N/A,,Clear,0,2013-03-06 05:35:00
11:55 PM,29.3,27.7,94,30.39,10.0,Calm,Calm,-,N/A,,Clear,0,2013-03-06 05:55:00